CW1035 Weather Reports


Display with metric or nautical units.
time (UTC)temp
F
wind
direction
speed
MPH
gust
MPH
rain 1hr
in
rain 24hr
in
rain mn
in
humidity
%
barometer
mb
20260903185235 62 97 3.0 14.0 0.00 0.11 0.10 76 1009.8
20260903184235 62 82 3.0 17.0 0.00 0.11 0.10 76 1009.7
20260903183735 61 95 8.0 15.0 0.00 0.11 0.10 77 1009.7
20260903183235 61 115 8.0 15.0 0.00 0.11 0.10 77 1009.5
20260903182734 61 118 10.0 15.0 0.00 0.11 0.10 78 1009.5
20260903181235 61 117 11.0 16.0 0.00 0.11 0.10 81 1009.4
20260903180305 61 120 11.0 16.0 0.00 0.11 0.10 81 1009.5
20260903175734 61 139 2.0 17.0 0.00 0.11 0.10 81 1009.5
20260903175234 60 104 10.0 18.0 0.00 0.11 0.10 82 1009.4
20260903174734 60 121 11.0 18.0 0.00 0.11 0.10 82 1009.4
20260903173734 60 93 7.0 18.0 0.00 0.11 0.10 82 1009.2
20260903172733 60 150 17.0 17.0 0.00 0.11 0.10 82 1009.1
20260903172234 60 103 9.0 17.0 0.00 0.11 0.10 82 1009.1
20260903171233 59 103 8.0 16.0 0.00 0.11 0.10 84 1009.0
20260903170734 59 90 9.0 19.0 0.00 0.11 0.10 85 1008.9
20260903170303 59 119 11.0 19.0 0.00 0.11 0.10 85 1008.9
20260903165733 59 98 8.0 17.0 0.00 0.11 0.10 85 1008.9
20260903165233 59 92 9.0 14.0 0.00 0.11 0.10 86 1008.8
20260903164733 59 145 7.0 15.0 0.00 0.11 0.10 85 1008.8
20260903164233 58 131 13.0 15.0 0.00 0.11 0.10 86 1008.8
20260903161733 58 148 5.0 16.0 0.00 0.11 0.10 88 1008.8
20260903161233 57 98 8.0 16.0 0.00 0.11 0.10 88 1008.7
20260903160732 57 141 9.0 16.0 0.00 0.11 0.10 88 1008.7
20260903160232 57 100 5.0 16.0 0.00 0.11 0.10 89 1008.6
20260903155732 57 129 12.0 16.0 0.00 0.11 0.10 89 1008.6
20260903155232 57 125 10.0 13.0 0.00 0.11 0.10 90 1008.7
20260903154732 56 141 7.0 13.0 0.00 0.11 0.10 90 1008.7
20260903153731 56 118 9.0 14.0 0.00 0.11 0.10 91 1008.8
20260903152731 55 115 8.0 14.0 0.00 0.11 0.10 91 1008.8
20260903152231 55 130 7.0 14.0 0.00 0.11 0.10 91 1008.7
20260903151801 55 128 3.0 14.0 0.00 0.11 0.10 91 1008.8
20260903150731 55 125 6.0 14.0 0.00 0.11 0.10 91 1008.8
20260903150300 55 134 8.0 13.0 0.00 0.11 0.10 92 1008.8
20260903145801 55 143 9.0 14.0 0.00 0.11 0.10 92 1008.8
20260903145231 55 110 8.0 15.0 0.00 0.11 0.10 91 1008.8
20260903144801 55 79 2.0 15.0 0.00 0.11 0.10 91 1008.7
20260903144300 55 96 5.0 14.0 0.00 0.11 0.10 91 1008.7
20260903143800 55 98 4.0 12.0 0.00 0.11 0.10 91 1008.6
20260903143300 55 135 6.0 14.0 0.00 0.11 0.10 91 1008.6
20260903142800 55 147 4.0 14.0 0.00 0.11 0.10 91 1008.5
20260903141800 55 120 4.0 12.0 0.00 0.11 0.10 91 1008.5
20260903140800 55 136 10.0 18.0 0.00 0.11 0.10 91 1008.3
20260903140259 55 142 4.0 18.0 0.00 0.11 0.10 91 1008.3
20260903135759 55 144 6.0 14.0 0.00 0.11 0.10 91 1008.2
20260903135259 55 117 5.0 16.0 0.00 0.11 0.10 91 1008.2
20260903134759 55 147 7.0 16.0 0.00 0.11 0.10 91 1008.2
20260903134258 54 117 3.0 15.0 0.00 0.11 0.10 91 1008.0
20260903133759 54 167 7.0 15.0 0.00 0.11 0.10 92 1008.0
20260903132258 54 136 4.0 13.0 0.01 0.11 0.10 93 1008.0
20260903131258 54 124 9.0 13.0 0.03 0.11 0.10 93 1008.0
20260903130758 54 138 5.0 14.0 0.04 0.11 0.10 93 1007.8
20260903125758 54 133 4.0 16.0 0.05 0.11 0.10 93 1007.8
20260903125258 54 122 12.0 16.0 0.06 0.11 0.10 93 1007.7
20260903124757 54 155 9.0 17.0 0.06 0.11 0.10 93 1007.7
20260903124257 54 134 10.0 17.0 0.07 0.11 0.10 94 1007.7
20260903123758 54 188 8.0 15.0 0.08 0.11 0.10 94 1007.7
20260903123257 54 98 4.0 18.0 0.07 0.10 0.09 94 1007.7
20260903122257 54 158 10.0 17.0 0.09 0.10 0.09 93 1007.5
20260903121757 54 105 12.0 17.0 0.08 0.09 0.08 93 1007.5
20260903121257 55 136 8.0 17.0 0.07 0.08 0.07 93 1007.6
20260903120757 55 98 8.0 14.0 0.06 0.07 0.06 93 1007.5
20260903120256 55 165 7.0 14.0 0.05 0.06 0.05 93 1007.5
20260903115256 55 153 4.0 17.0 0.04 0.05 0.04 92 1007.4
20260903114756 55 86 5.0 17.0 0.04 0.05 0.04 92 1007.3
20260903114256 55 122 5.0 17.0 0.03 0.04 0.03 92 1007.3
20260903113756 55 84 5.0 18.0 0.02 0.03 0.02 91 1007.2
20260903113256 55 134 12.0 20.0 0.02 0.03 0.02 91 1007.2
20260903112756 55 124 6.0 21.0 0.01 0.02 0.01 90 1007.1
20260903112255 56 172 9.0 21.0 0.00 0.01 0.00 89 1007.1
20260903111755 56 155 14.0 19.0 0.00 0.01 0.00 88 1007.1
20260903111255 56 115 9.0 19.0 0.00 0.01 0.00 88 1006.9
20260903110756 56 89 8.0 15.0 0.00 0.01 0.00 88 1006.9
20260903110255 56 98 14.0 15.0 0.00 0.01 0.00 88 1006.9
20260903105755 56 78 4.0 16.0 0.00 0.01 0.00 88 1006.9
20260903105255 56 131 7.0 17.0 0.00 0.01 0.00 88 1006.9
20260903104755 56 182 8.0 17.0 0.00 0.01 0.00 88 1006.8
20260903104254 56 117 8.0 16.0 0.00 0.01 0.00 88 1006.8
20260903103755 56 136 8.0 16.0 0.00 0.01 0.00 88 1006.9
20260903102754 56 115 8.0 20.0 0.00 0.01 0.00 87 1007.0
20260903102255 56 135 8.0 20.0 0.00 0.01 0.00 87 1006.9
20260903101754 56 193 8.0 20.0 0.00 0.01 0.00 87 1006.8
20260903101254 56 145 14.0 20.0 0.00 0.01 0.00 87 1006.9
20260903100254 56 94 9.0 17.0 0.00 0.01 0.00 87 1006.8
20260903095754 56 190 6.0 16.0 0.00 0.01 0.00 87 1006.9
20260903095253 56 100 9.0 16.0 0.00 0.01 0.00 87 1007.0
20260903094754 56 155 6.0 16.0 0.00 0.01 0.00 87 1006.8
20260903094253 56 134 7.0 16.0 0.00 0.01 0.00 87 1006.8
20260903093754 56 155 9.0 16.0 0.00 0.01 0.00 87 1006.7
20260903093253 56 107 6.0 16.0 0.00 0.01 0.00 88 1006.7
20260903092753 56 98 5.0 12.0 0.00 0.01 0.00 87 1006.8
20260903091253 56 165 5.0 17.0 0.00 0.01 0.00 87 1006.6
20260903090753 56 143 10.0 14.0 0.00 0.01 0.00 87 1006.6
20260903090253 56 143 4.0 14.0 0.00 0.01 0.00 87 1006.5
20260903085753 56 167 6.0 19.0 0.00 0.01 0.00 87 1006.6
20260903085253 56 131 9.0 19.0 0.00 0.01 0.00 87 1006.5
20260903084752 56 161 4.0 14.0 0.00 0.01 0.00 87 1006.6
20260903083752 56 124 10.0 12.0 0.00 0.01 0.00 88 1006.7
20260903083252 56 212 3.0 12.0 0.00 0.01 0.00 88 1006.7
20260903082752 56 117 4.0 12.0 0.00 0.01 0.00 88 1006.7
20260903081752 56 130 4.0 13.0 0.00 0.01 0.00 88 1006.6
20260903081251 56 171 9.0 11.0 0.00 0.01 0.00 88 1006.7
20260903080751 56 137 4.0 16.0 0.00 0.01 0.00 88 1006.6
20260903080252 56 141 7.0 16.0 0.00 0.01 0.00 88 1006.7
20260903075751 56 131 6.0 15.0 0.00 0.01 0.00 88 1006.7
20260903075251 56 132 8.0 15.0 0.00 0.01 0.00 88 1006.7
20260903074251 56 152 11.0 14.0 0.00 0.01 0.00 88 1006.5
20260903073751 56 148 4.0 10.0 0.00 0.01 0.00 88 1006.5
20260903072750 56 158 4.0 11.0 0.00 0.01 0.00 88 1006.5
20260903072250 56 221 4.0 11.0 0.00 0.01 0.00 88 1006.5
20260903071750 56 152 2.0 9.0 0.00 0.01 0.00 88 1006.5
20260903071250 56 169 5.0 9.0 0.00 0.01 0.00 88 1006.4
20260903070750 56 147 3.0 14.0 0.00 0.01 0.00 88 1006.5
20260903070250 56 121 5.0 15.0 0.00 0.01 0.00 88 1006.4
20260903065750 56 176 14.0 15.0 0.00 0.01 0.01 88 1006.4
20260903065250 56 144 6.0 14.0 0.00 0.01 0.01 88 1006.4
20260903064750 56 143 7.0 18.0 0.00 0.01 0.01 88 1006.4
20260903063750 56 100 4.0 15.0 0.00 0.01 0.01 89 1006.3
20260903063250 56 205 4.0 15.0 0.00 0.01 0.01 90 1006.3
20260903062749 56 179 3.0 12.0 0.00 0.01 0.01 90 1006.4
20260903061749 56 179 3.0 13.0 0.00 0.01 0.01 89 1006.3
20260903061249 56 169 1.0 16.0 0.00 0.01 0.01 89 1006.3
20260903060749 56 133 8.0 16.0 0.00 0.01 0.01 89 1006.2
20260903060248 56 163 4.0 16.0 0.00 0.01 0.01 89 1006.1
20260903055748 56 160 6.0 12.0 0.00 0.01 0.01 89 1006.2
20260903055248 56 139 6.0 12.0 0.00 0.01 0.01 89 1006.2
20260903054749 56 174 4.0 12.0 0.00 0.01 0.01 89 1006.2
20260903054248 56 162 5.0 8.0 0.00 0.01 0.01 89 1006.2
20260903053748 56 192 2.0 8.0 0.00 0.01 0.01 89 1006.3
20260903053248 56 148 2.0 8.0 0.00 0.01 0.01 89 1006.3
20260903052748 56 127 2.0 11.0 0.00 0.01 0.01 89 1006.2
20260903052248 57 168 2.0 11.0 0.00 0.01 0.01 89 1006.3
20260903051748 57 155 4.0 10.0 0.00 0.01 0.01 89 1006.2
20260903051248 57 179 1.0 12.0 0.00 0.01 0.01 89 1006.2
20260903050747 57 152 7.0 12.0 0.00 0.01 0.01 89 1006.1
20260903050247 57 138 6.0 10.0 0.00 0.01 0.01 88 1006.2
20260903045747 56 129 3.0 10.0 0.00 0.01 0.01 88 1006.2
20260903044747 56 140 2.0 8.0 0.00 0.01 0.01 88 1006.3
20260903044247 57 130 2.0 8.0 0.00 0.01 0.01 87 1006.2
20260903043747 57 141 1.0 11.0 0.00 0.01 0.01 87 1006.2
20260903042747 56 143 5.0 9.0 0.00 0.01 0.01 88 1006.1
20260903042247 56 158 2.0 6.0 0.00 0.01 0.01 88 1005.9
20260903041747 56 155 2.0 7.0 0.00 0.01 0.01 88 1005.9
20260903041246 57 122 4.0 7.0 0.00 0.01 0.01 87 1005.8
20260903040246 57 102 3.0 6.0 0.00 0.01 0.01 87 1005.8
20260903035746 57 139 4.0 6.0 0.00 0.01 0.01 86 1005.8
20260903034745 57 145 6.0 7.0 0.00 0.01 0.01 86 1005.5
20260903034245 57 127 1.0 9.0 0.00 0.01 0.01 85 1005.4
20260903033746 57 206 2.0 9.0 0.00 0.01 0.01 85 1005.3
20260903033245 57 121 8.0 8.0 0.00 0.01 0.01 85 1005.1
20260903032745 57 204 4.0 12.0 0.00 0.01 0.01 85 1005.0
20260903032245 57 169 2.0 13.0 0.00 0.01 0.01 85 1004.9
20260903031745 57 159 3.0 13.0 0.00 0.01 0.01 85 1004.8
20260903031245 57 153 10.0 11.0 0.00 0.01 0.01 85 1004.7
20260903030745 57 158 2.0 10.0 0.00 0.01 0.01 85 1004.6
20260903030244 58 203 6.0 9.0 0.00 0.01 0.01 85 1004.5
20260903025744 58 215 5.0 10.0 0.00 0.01 0.01 85 1004.4
20260903025245 58 154 2.0 12.0 0.00 0.01 0.01 85 1004.4
20260903024744 58 172 3.0 12.0 0.00 0.01 0.01 84 1004.3
20260903024244 58 142 2.0 17.0 0.00 0.01 0.01 84 1004.1
20260903023744 59 155 3.0 17.0 0.00 0.01 0.01 84 1003.9
20260903023244 59 145 5.0 13.0 0.00 0.01 0.01 84 1003.7
20260903022744 59 112 5.0 13.0 0.00 0.01 0.01 83 1003.7
20260903021744 59 135 4.0 16.0 0.00 0.01 0.01 83 1003.4
20260903021243 59 89 5.0 16.0 0.00 0.01 0.01 82 1003.4
20260903020743 60 124 8.0 17.0 0.00 0.01 0.01 82 1003.4
20260903020243 60 177 10.0 18.0 0.00 0.01 0.01 82 1003.3
20260903015743 59 152 14.0 18.0 0.00 0.01 0.01 83 1003.3
20260903015243 59 174 6.0 16.0 0.00 0.01 0.01 84 1003.2
20260903014743 59 186 11.0 17.0 0.00 0.01 0.01 84 1003.1
20260903014243 59 191 4.0 19.0 0.00 0.01 0.01 85 1003.1
20260903013742 59 143 9.0 21.0 0.00 0.01 0.01 85 1003.1
20260903013243 59 141 13.0 22.0 0.00 0.01 0.01 86 1003.0
20260903012743 59 105 16.0 24.0 0.00 0.01 0.01 85 1002.7
20260903011742 59 110 12.0 23.0 0.00 0.01 0.01 85 1003.0
20260903011242 59 191 9.0 21.0 0.00 0.01 0.01 86 1003.0
20260903010742 59 120 13.0 20.0 0.00 0.01 0.01 86 1002.9
20260903005742 59 123 7.0 16.0 0.00 0.01 0.01 87 1003.1
20260903005242 59 138 5.0 21.0 0.00 0.01 0.01 87 1003.0
20260903004742 59 85 13.0 21.0 0.00 0.01 0.01 87 1003.2
20260903003742 58 104 15.0 22.0 0.00 0.01 0.01 87 1003.2
20260903003242 58 143 7.0 22.0 0.00 0.01 0.01 88 1003.1
20260903001741 57 95 8.0 24.0 0.00 0.01 0.01 90 1002.7
20260903001241 57 120 11.0 24.0 0.00 0.01 0.01 90 1002.9
20260903000741 57 117 13.0 20.0 0.00 0.01 0.01 90 1002.9
20260903000241 57 142 6.0 20.0 0.00 0.01 0.01 90 1002.8
20260902235241 57 134 8.0 23.0 0.00 0.01 0.01 90 1002.7
20260902234740 57 110 12.0 26.0 0.00 0.01 0.01 90 1002.8
20260902234241 57 94 10.0 26.0 0.00 0.01 0.01 90 1002.9
20260902233740 58 120 13.0 20.0 0.00 0.01 0.01 90 1003.0
20260902232740 58 72 9.0 23.0 0.00 0.01 0.01 89 1003.3
20260902232240 58 69 7.0 23.0 0.00 0.01 0.01 89 1003.2
20260902231239 58 143 6.0 24.0 0.00 0.01 0.01 88 1003.3
20260902230740 58 127 18.0 24.0 0.00 0.01 0.01 88 1003.3
20260902230239 58 199 6.0 19.0 0.00 0.01 0.01 88 1003.4
20260902225739 59 123 11.0 21.0 0.00 0.01 0.01 87 1003.4
20260902225239 59 188 7.0 21.0 0.00 0.01 0.01 86 1003.3
20260902224739 59 172 7.0 19.0 0.00 0.01 0.01 85 1003.3
20260902223739 60 148 11.0 22.0 0.01 0.01 0.01 84 1003.5
20260902223239 60 163 8.0 23.0 0.01 0.01 0.01 83 1003.5
20260902222738 60 147 7.0 23.0 0.01 0.01 0.01 82 1003.4
20260902222238 60 193 7.0 23.0 0.01 0.01 0.01 81 1003.4
20260902221739 61 173 14.0 25.0 0.01 0.01 0.01 80 1003.4
20260902220238 61 318 2.0 23.0 0.01 0.01 0.01 80 1003.4
20260902215738 62 202 8.0 23.0 0.01 0.01 0.01 81 1003.5
20260902215238 62 172 12.0 27.0 0.01 0.01 0.01 80 1003.5
20260902214738 62 216 6.0 27.0 0.01 0.01 0.01 80 1003.5
20260902214238 63 188 8.0 25.0 0.00 0.00 0.00 79 1003.6
20260902213737 63 147 12.0 23.0 0.00 0.00 0.00 79 1003.7
20260902213237 63 203 15.0 23.0 0.00 0.00 0.00 79 1003.7
20260902212737 63 121 6.0 18.0 0.00 0.00 0.00 80 1003.7
20260902212238 63 75 6.0 18.0 0.00 0.00 0.00 81 1003.7
20260902211737 63 114 7.0 20.0 0.00 0.00 0.00 81 1003.8
20260902210237 63 122 14.0 16.0 0.00 0.00 0.00 82 1003.8
20260902205737 63 112 7.0 17.0 0.00 0.00 0.00 81 1003.9
20260902205237 63 96 8.0 18.0 0.00 0.00 0.00 82 1003.9
20260902204736 63 85 10.0 18.0 0.00 0.00 0.00 82 1003.9
20260902204236 62 110 13.0 18.0 0.00 0.00 0.00 83 1003.9
20260902203236 62 94 6.0 15.0 0.00 0.00 0.00 85 1004.0
20260902200735 65 175 14.0 21.0 0.00 0.00 0.00 75 1004.1
20260902200236 65 127 13.0 19.0 0.00 0.00 0.00 73 1003.9
20260902195736 65 129 15.0 19.0 0.00 0.00 0.00 73 1004.0
20260902195236 65 98 14.0 20.0 0.00 0.00 0.00 74 1004.0
20260902194236 65 161 11.0 20.0 0.00 0.00 0.00 74 1004.1
20260902193735 64 133 8.0 21.0 0.00 0.00 0.00 73 1004.1
20260902193235 64 114 8.0 21.0 0.00 0.00 0.00 74 1004.1
20260902192735 64 129 21.0 21.0 0.00 0.00 0.00 75 1004.1
20260902192235 63 127 12.0 21.0 0.00 0.00 0.00 76 1004.1
20260902191735 63 129 14.0 21.0 0.00 0.00 0.00 77 1004.1
20260902191235 63 124 9.0 18.0 0.00 0.00 0.00 78 1004.2